Preview of NWS' New Version of Forecast
This preview is not operational and should not be used for support decisions.

Regional Weather Roundup (RWR)

Issued by National Weather Service (NWS)

                            
000
ASUS46 KSEW 161610
RWRWA 

WASHINGTON REGIONAL WEATHER ROUNDUP
NATIONAL WEATHER SERVICE SEATTLE WA
900 AM PDT TUE JUL 16 2019

NOTE:"FAIR" INDICATES FEW OR NO CLOUDS BELOW 12,000 FEET WITH NO 
SIGNIFICANT WEATHER AND/OR OBSTRUCTIONS TO VISIBILITY.

WAZ507-509-555>559-161700-
SEATTLE, TACOMA, EVERETT, AND VICINITY
  
CITY           SKY/WX    TMP DP  RH WIND       PRES   REMARKS
EVERETT        CLOUDY    63  57  81 CALM      30.05S                  
BOEING FIELD   CLOUDY    66  58  75 S3        30.03S                  
RENTON         CLOUDY    67  59  75 CALM      30.03S                  
SEATAC AIRPORT PTSUNNY   66  58  75 SW6       30.04S                  
JBLM-MCCHORD   CLOUDY    65  65  99 CALM      30.04S                  
PUYALLUP       CLOUDY    64  61  88 CALM      30.04F                  
BREMERTON      PTSUNNY   64  57  78 VRB3      30.04F                  
JBLM-FT LEWIS  NOT AVBL                                               
TACOMA NARROWS CLOUDY    62  58  86 CALM      30.04S                  
$$
 
WAZ001-503-506-510-514-515-161700-
NORTH INTERIOR
  
CITY           SKY/WX    TMP DP  RH WIND       PRES   REMARKS
BELLINGHAM     SUNNY     63  55  75 S9        30.02S                  
FRIDAY HARBOR  CLOUDY    54  54 100 SE3       30.04S FOG              
EASTSOUND        N/A     59  57  94 S7        30.01F                  
PORT ANGELES   CLOUDY    59  56  89 W8        30.05R                  
EDIZ HOOK      CLOUDY    58  55  89 W9        30.04S                  
PORT TOWNSEND  CLOUDY    61  57  88 NE8       30.03S                  
NAS WHIDBEY    FOG       58  54  86 W6        30.08S VSB 1/2          
ARLINGTON      SUNNY     64  57  78 CALM      30.04S                  
BURLINGTON     MOSUNNY   70  59  68 CALM      30.04S                  
$$
 
WAZ020-022-039-040-504-511-512-161700-
SOUTHWEST INTERIOR
  
CITY           SKY/WX    TMP DP  RH WIND       PRES   REMARKS
SHELTON        CLOUDY    63  59  87 W3        30.02S                  
OLYMPIA        PTSUNNY   66  59  78 E3        30.03F                  
CHEHALIS       CLOUDY    64  63  94 CALM      30.04F                  
KELSO          CLOUDY    65  60  84 CALM      30.05S                  
VANCOUVER      CLOUDY    67  58  72 CALM      30.03S HAZE             
SCAPPOOSE, OR  CLOUDY    68  58  70 NE5       30.02F                  
PORTLAND, OR   PTSUNNY   67  58  72 CALM      30.04S                  
$$
 
WAZ021-516-517-161700-
WASHINGTON COAST
  
CITY           SKY/WX    TMP DP  RH WIND       PRES   REMARKS
FORKS          CLOUDY    61  56  83 CALM      30.04S                  
HOQUIAM        CLOUDY    63  61  93 CALM      30.04S                  
ASTORIA, OR    LGT RAIN  62  60  93 W6        30.03S FOG              
$$
 
WAZ019-023-024-040-567>569-161700-
CASCADE MOUNTAINS AND COLUMBIA GORGE
  
CITY           SKY/WX    TMP DP  RH WIND       PRES   REMARKS
STAMPEDE PASS  FOG       52  51  97 VRB5      30.09R VSB 1/2          
TROUTDALE, OR  CLOUDY    69  59  70 W6        30.04S                  
HOOD RIVER, OR PTSUNNY   68  57  68 NW3       30.02S                  
THE DALLES, OR PTSUNNY   69  59  70 NW12      29.99S                  
$$

WAZ026-027-041>044-520-521-161700-
EAST SLOPES
  
CITY           SKY/WX    TMP DP  RH WIND       PRES   REMARKS
OMAK           PTSUNNY   67  54  63 NE6       29.98S                  
WENATCHEE      PTSUNNY   69  49  48 W6        29.97S                  
ELLENSBURG     PTSUNNY   69  52  54 NW16      29.99S                  
YAKIMA         PTSUNNY   69  52  54 CALM      29.99S                  
SUNNYSIDE ARPT PTSUNNY   67  57  68 CALM      29.98S                  
YAKIMA TC      FAIR      68  49  50 CALM      29.98S                  
$$

WAZ028-034-035-161700-
COLUMBIA BASIN
  
CITY           SKY/WX    TMP DP  RH WIND       PRES   REMARKS
EPHRATA        PTSUNNY   69  50  50 E3        29.97R                  
MOSES LAKE     MOSUNNY   71  50  47 NW5       29.97S                  
PASCO          MOSUNNY   74  52  46 SW5       29.97S                  
RICHLAND ARPT  MOSUNNY   75  54  47 E3        29.97                   
HERMISTON, OR  MOSUNNY   71  55  56 W6        29.98S                  
$$

WAZ036>038-161700-
NORTHEAST WASHINGTON
  
CITY           SKY/WX    TMP DP  RH WIND       PRES   REMARKS
SPOKANE GEIGER LGT RAIN  58  54  86 SE8       30.02S                  
SPOKANE FELTS  PTSUNNY   62  56  80 CALM      30.03R                  
FAIRCHILD AFB  LGT RAIN  58  58 100 SE8       30.02R                  
COEURDALENE,ID LGT RAIN  61  57  87 SW3       30.03S                  
DEER PARK      PTSUNNY   61  55  81 SE5       30.03R                  
$$

WAZ029>033-161700-
SOUTHEAST WASHINGTON
  
CITY           SKY/WX    TMP DP  RH WIND       PRES   REMARKS
PULLMAN        CLOUDY    64  52  64 N5        30.04S                  
LEWISTON, ID   MOSUNNY   67  53  61 MISG      30.00S                  
WALLA WALLA    PTSUNNY   72  51  47 SW15      29.99F                  
PENDLETON, OR  MOSUNNY   72  51  47 SW9       30.00F                  
$$